COSMOS 1529

Satellite information

Favourite Embed

Satellite Type and Status

PAYLOADIN ORBIT

Key statistics

Satellite COSMOS 1529 at a glance.

Uptime

15102

Days in orbit

Revolutions

≈ 12.4

Per day

Orbit

LEO

Low Earth Orbit

Inclination

74.0

Latest

Satellite identification and parameters

Extended collection of information and parameters for COSMOS 1529.

Object identification

Identified? True

Debris? False

Object name: COSMOS 1529

International designator: 1984-001H

Object number (NORAD): 14618

Object ID (CCSDS): 14618

Country: COMMONWEALTH OF INDEPENDENT STATES (CIS)

Current information (Y/N): Y

RCS size: MEDIUM

Orbital parameters

Period: 115.676 minutes

Inclination: 74.0079 deg

SMA: 7864.201 km

Apoapsis: 1510.934 km

Periapsis: 1461.198 km

RAAN: 318.2432 deg

Eccentricy: 0.0031622

Argument of periapsis: 144.6898 deg

Mean anomaly: 7.3104 deg

Mean motion: 12.44860996 rev/day

Mean motion (dot): 0.00000004 rev/day2

B* drag term: 0.00013623 1/REarth

Two-line elements (TLE)

Creation date: May 10, 2025, 2:32 a.m.

Reference frame: TEME

Reference center: EARTH

Epoch: May 9, 2025, 11:03 p.m. UTC

TLE line 0: 0 COSMOS 1529

TLE line 1: 1 14618U 84001H 25129.96074112 .00000004 00000-0 13623-3 0 9994

TLE line 2: 2 14618 74.0079 318.2432 0031622 144.6898 7.3104 12.44860996705372

Live tracking on map

Real-time ground track for satellite COSMOS 1529.

In-orbit conjunctions

A list of the most updated potential collisions computed for object COSMOS 1529.

Target Orbit TCA Probability of collision Miss distance Type
DELTA 1 DEB SSO 2024-06-03 14:22:55 0.0001727037 355.0 (m) DEBRIS

Associated space launch

Military communications satellites

COSMOS 1529 was lifted into orbit during the mission ‘Kosmos-3M | Strela-1M 273-280’, on board a Kosmos-3M space rocket.

The launch took place on Jan. 5, 1984, 8:09 p.m. from 132/2.

For more information about the launch, click the button.

Launch to space Kosmos-3M | Strela-1M 273-280
Kosmos-3M | Strela-1M 273-280

Agency: N/A

Status: Launch Successful

Launch date: Jan. 5, 1984, 8:09 p.m. UTC

Rocket: Kosmos-3M

Launch pad: 132/2

Location: Plesetsk Cosmodrome, Russian Federation

...

Latest news about this satellite

There are no fresh news available about this satellite. Check back as we update our databases every day.


Newsletter sign-up

Weekly statistics, charts and insights to help you stay on top of the space industry.